Flag for Germany Weather past 2 weeks in Springe, Lower Saxony, Germany

Now
57 °F

Passing clouds.


Feels Like: 54 °F
Forecast: 45 / 57 °F
Wind: 14 mph from Southwest

Location: Wunstorf Airport

Current Time: Oct 20, 2014 at 6:31:05 AM

Latest Report: Oct 20, 2014 at 5:20 AM


Visibility: N/A

Pressure: 29.92 "Hg

Humidity: 82%

Dew point: 52 °F

Location of SpringeLocation

Historic Weather in Springe — Graph

°F

Springe temperature yesterday

Maximum temperature yesterday: 73 °F (at 2:20 PM)
Minimum temperature yesterday: 57 °F (at 12:20 AM)
Average temperature yesterday: 64 °F

Past Weeks' High & Low Weather Summary

 TemperatureHumidityPressure
High73 °F (Oct 19, 2:20 PM)100% (Oct 6, 7:20 AM)30.15 "Hg (Oct 6, 7:20 AM)
Low46 °F (Oct 8, 5:20 AM)49% (Oct 14, 3:20 PM)29.53 "Hg (Oct 7, 2:20 PM)
Average57 °F85%29.84 "Hg
* Reported Oct 5 4:20 PM — Oct 20 5:20 AM, Springe, Weather by CustomWeather, © 2014

Note: Actual official high and low records may vary slightly from our data, if they occured in-between our weather recording intervals... More about our weather records

Advertising

Springe weather history for previous 24 hours

 ConditionsComfort  
Time TempWeatherWind HumidityBarometerVisibility
5:20 AM
Oct 20
57 °FPassing clouds.14 mph82%29.92 "HgN/A
4:20 AM57 °FCool.12 mph88%29.92 "HgN/A
3:20 AM57 °FCool.12 mph88%29.92 "HgN/A
2:20 AM57 °FCool.10 mph88%29.92 "HgN/A
1:20 AM59 °FCool.10 mph88%29.92 "HgN/A
12:20 AM59 °FCool.10 mph88%29.92 "HgN/A
11:20 PM
Oct 19
61 °FCool.12 mph83%29.92 "HgN/A
10:20 PM63 °FMild.13 mph88%29.92 "HgN/A
9:20 PM63 °FMild.8 mph94%29.89 "HgN/A
8:20 PM63 °FMild.12 mph88%29.89 "Hg2 mi
7:20 PM64 °FMild.14 mph88%29.89 "HgN/A
6:20 PM70 °FMild.13 mph69%29.86 "HgN/A
5:20 PM70 °FMild.9 mph69%29.86 "HgN/A
4:20 PM73 °FMild.16 mph57%29.89 "HgN/A
3:20 PM73 °FMild.13 mph61%29.89 "HgN/A
2:20 PM73 °FMild.13 mph61%29.92 "HgN/A
1:20 PM72 °FMild.13 mph65%29.95 "HgN/A
12:20 PM68 °FMild.14 mph73%29.95 "HgN/A
11:20 AM66 °FMild.14 mph73%29.98 "HgN/A
10:20 AM63 °FMild.10 mph83%29.98 "HgN/A
9:20 AM61 °FCool.10 mph83%29.98 "HgN/A
8:20 AM57 °FCool.9 mph88%29.98 "Hg6 mi
7:20 AM57 °FCool.13 mph94%30.01 "HgN/A
6:20 AM59 °FCool.10 mph88%30.04 "HgN/A
Weather by CustomWeather, © 2014

See weather overviewHow to use our weather pages